Date String (YYYY-MM-DD hh:mm:ss) UTC,Instrument flags,Ambient pressure (hPa),Sample flow (lpm),Bypass flow (lpm),Sample temperature (°C),Ambient temperature (°C),ASC tube jacket temperature (°C),LED temperature (°C),Box temperature (°C),Sample RH (%),Span deviation,Mass concentration (μg/m³),Mass concentration (μg/m³),Mass concentration (μg/m³)
DateTimeUTC,F1_M11,P_M11,Q1_M11,Q2_M11,T1_M11,T2_M11,T3_M11,T4_M11,T5_M11,U1_M11,ZSPAN_M11,X2_M11,X0_M11,X1_M11
2022-05-23 08:00:00,,0826.8,5.00,0.00,29.4,28.2,00.0,38.5,31.0,20.3,0000.0,0000.00,0000.00,0000.00
2022-05-23 08:01:00,,0826.8,5.00,0.00,29.3,28.2,00.0,38.5,31.0,20.4,0000.0,0000.00,0000.00,0000.00
2022-05-23 08:02:00,,0826.8,4.99,0.00,29.3,28.1,00.0,38.5,31.0,20.5,0000.0,0000.00,0000.00,0000.00
2022-05-23 08:03:00,,0826.8,4.99,0.00,29.3,28.1,00.0,38.5,31.0,20.6,0000.0,0000.00,0000.00,0000.00
2022-05-23 08:04:00,,0826.9,5.00,0.00,29.3,28.1,00.0,38.4,30.9,20.6,0000.0,0000.00,0000.00,0000.00
2022-05-23 08:05:00,,0826.8,5.01,0.00,29.2,28.1,00.0,38.4,30.9,20.7,0000.0,0000.00,0000.00,0000.00
2022-05-23 08:06:00,,0826.8,5.00,0.00,29.2,28.1,00.0,38.4,30.9,20.9,0000.0,0000.00,0000.00,0000.00
2022-05-23 08:07:00,,0826.8,5.00,0.00,29.2,28.1,00.0,38.4,30.9,20.8,0000.0,0000.00,0000.00,0000.00
2022-05-23 08:08:00,,0826.8,4.99,0.00,29.2,28.1,00.0,38.4,30.9,20.8,0000.0,0000.00,0000.00,0000.00
2022-05-23 08:09:00,,0826.7,5.01,0.00,29.2,28.1,00.0,38.4,30.9,20.8,0000.0,0000.00,0000.00,0000.00
2022-05-23 08:10:00,,0826.7,5.01,0.00,29.2,28.1,00.0,38.3,31.0,20.7,0000.0,0000.00,0000.00,0000.00
2022-05-23 08:11:00,,0826.6,5.00,0.00,29.2,28.1,00.0,38.3,31.0,20.8,0000.0,0000.00,0000.00,0000.00
2022-05-23 08:12:00,,0826.6,4.99,0.00,29.2,28.1,00.0,38.3,31.0,20.7,0000.0,0000.00,0000.00,0000.00
2022-05-23 08:13:00,,0826.6,5.00,0.00,29.2,28.1,00.0,38.3,31.0,20.7,0000.0,0000.00,0000.00,0000.00
2022-05-23 08:14:00,,0826.7,5.00,0.00,29.3,28.2,00.0,38.3,31.0,20.7,0000.0,0000.00,0000.00,0000.00
2022-05-23 08:15:00,,0826.7,5.00,0.00,29.3,28.2,00.0,38.3,31.0,20.8,0000.0,0000.00,0000.00,0000.00
2022-05-23 08:16:00,,0826.7,5.00,0.00,29.3,28.2,00.0,38.3,31.0,20.8,0000.0,0000.00,0000.00,0000.00
2022-05-23 08:17:00,,0826.7,5.00,0.00,29.3,28.2,00.0,38.3,31.1,20.9,0000.0,0000.01,0000.01,0000.00
2022-05-23 08:18:00,,0826.7,5.00,0.00,29.3,28.2,00.0,38.3,31.1,20.9,0000.0,0000.01,0000.01,0000.00
2022-05-23 08:19:00,,0826.6,5.00,0.00,29.3,28.2,00.0,38.3,31.1,20.9,0000.0,0000.01,0000.01,0000.01
2022-05-23 08:20:00,,0826.7,4.99,0.00,29.3,28.2,00.0,38.3,31.0,20.9,0000.0,0000.01,0000.01,0000.01
2022-05-23 08:21:00,,0826.7,5.00,0.00,29.3,28.2,00.0,38.3,31.0,20.9,0000.0,0000.01,0000.01,0000.00
2022-05-23 08:22:00,,0826.6,5.00,0.00,29.3,28.2,00.0,38.3,31.0,20.9,0000.0,0000.01,0000.29,0000.01
2022-05-23 08:23:00,,0826.6,5.00,0.00,29.3,28.2,00.0,38.3,31.0,20.8,0000.0,0000.01,0000.73,0000.01
2022-05-23 08:24:00,,0826.7,5.00,0.00,29.3,28.2,00.0,38.3,31.0,20.7,0000.0,0000.01,0000.73,0000.01
2022-05-23 08:25:00,,0826.6,4.99,0.00,29.3,28.2,00.0,38.3,31.0,20.8,0000.0,0000.01,0000.73,0000.01
2022-05-23 08:26:00,,0826.6,5.00,0.00,29.3,28.2,00.0,38.3,31.0,20.8,0000.0,0000.01,0000.73,0000.01
2022-05-23 08:27:00,,0826.6,4.99,0.00,29.2,28.2,00.0,38.3,31.0,20.8,0000.0,0000.01,0000.73,0000.00
2022-05-23 08:28:00,,0826.6,5.00,0.00,29.2,28.2,00.0,38.3,31.0,20.9,0000.0,0000.01,0000.73,0000.00
2022-05-23 08:29:00,,0826.6,4.99,0.00,29.2,28.2,00.0,38.2,31.0,20.8,0000.0,0000.01,0000.73,0000.00
2022-05-23 08:30:00,,0826.6,5.01,0.00,29.3,28.2,00.0,38.2,31.0,20.9,0000.0,0000.01,0000.73,0000.00
2022-05-23 08:31:00,,0826.7,5.01,0.00,29.3,28.2,00.0,38.2,31.0,21.0,0000.0,0000.01,0000.73,0000.00
2022-05-23 08:32:00,,0826.7,5.00,0.00,29.2,28.2,00.0,38.2,31.0,21.0,0000.0,0000.01,0000.73,0000.00
2022-05-23 08:33:00,,0826.7,4.99,0.00,29.3,28.2,00.0,38.2,31.0,21.0,0000.0,0000.01,0000.67,0000.00
2022-05-23 08:34:00,,0826.7,5.00,0.00,29.3,28.2,00.0,38.2,31.0,20.9,0000.0,0000.00,0000.00,0000.00
2022-05-23 08:35:00,,0826.7,5.00,0.00,29.2,28.2,00.0,38.2,31.0,20.8,0000.0,0000.00,0000.00,0000.00
2022-05-23 08:36:00,,0826.6,5.01,0.00,29.2,28.2,00.0,38.2,31.0,20.9,0000.0,0000.00,0000.01,0000.00
2022-05-23 08:37:00,,0826.5,5.01,0.00,29.2,28.2,00.0,38.2,31.0,21.0,0000.0,0000.00,0000.01,0000.00
2022-05-23 08:38:00,,0826.5,4.99,0.00,29.2,28.2,00.0,38.2,31.0,20.9,0000.0,0000.00,0000.01,0000.00
2022-05-23 08:39:00,,0826.5,5.00,0.00,29.3,28.2,00.0,38.2,31.0,20.9,0000.0,0000.00,0000.01,0000.00
2022-05-23 08:40:00,,0826.5,5.00,0.00,29.3,28.2,00.0,38.2,31.0,20.9,0000.0,0000.00,0000.01,0000.00
2022-05-23 08:41:00,,0826.5,5.01,0.00,29.3,28.2,00.0,38.2,31.1,21.0,0000.0,0000.00,0000.01,0000.00
2022-05-23 08:42:00,,0826.5,5.01,0.00,29.3,28.2,00.0,38.2,31.1,21.2,0000.0,0000.01,0000.01,0000.01
2022-05-23 08:43:00,,0826.5,5.00,0.00,29.3,28.2,00.0,38.2,31.1,21.2,0000.0,0000.01,0000.01,0000.01
2022-05-23 08:44:00,,0826.5,5.00,0.00,29.3,28.2,00.0,38.2,31.1,21.2,0000.0,0000.01,0000.01,0000.01
2022-05-23 08:45:00,,0826.5,5.00,0.00,29.3,28.2,00.0,38.2,31.1,21.2,0000.0,0000.01,0000.01,0000.01
2022-05-23 08:46:00,,0826.4,5.00,0.00,29.3,28.3,00.0,38.2,31.1,21.2,0000.0,0000.01,0000.01,0000.01
2022-05-23 08:47:00,,0826.5,5.00,0.00,29.3,28.3,00.0,38.2,31.1,21.1,0000.0,0000.01,0000.01,0000.01
2022-05-23 08:48:00,,0826.5,4.99,0.00,29.3,28.3,00.0,38.2,31.1,20.8,0000.0,0000.01,0000.01,0000.01
2022-05-23 08:49:00,,0826.4,5.01,0.00,29.3,28.3,00.0,38.2,31.1,20.7,0000.0,0000.01,0000.01,0000.01
2022-05-23 08:50:00,,0826.4,5.00,0.00,29.3,28.3,00.0,38.2,31.1,20.7,0000.0,0000.01,0000.01,0000.01
2022-05-23 08:51:00,,0826.3,5.00,0.00,29.3,28.3,00.0,38.2,31.1,20.8,0000.0,0000.01,0000.01,0000.01
2022-05-23 08:52:00,,0826.3,5.00,0.00,29.3,28.3,00.0,38.2,31.1,20.7,0000.0,0000.01,0000.01,0000.01
2022-05-23 08:53:00,,0826.3,5.00,0.00,29.3,28.3,00.0,38.2,31.1,20.7,0000.0,0000.01,0000.01,0000.01
2022-05-23 08:54:00,,0826.2,4.99,0.00,29.3,28.3,00.0,38.2,31.1,20.7,0000.0,0000.02,0000.02,0000.01
2022-05-23 08:55:00,,0826.2,5.00,0.00,29.3,28.2,00.0,38.3,31.1,20.7,0000.0,0000.02,0000.03,0000.00
2022-05-23 08:56:00,,0826.2,5.01,0.00,29.3,28.2,00.0,38.3,31.1,20.6,0000.0,0000.02,0000.03,0000.00
2022-05-23 08:57:00,,0826.2,5.00,0.00,29.3,28.2,00.0,38.2,31.1,20.7,0000.0,0000.02,0000.03,0000.00
2022-05-23 08:58:00,,0826.2,5.00,0.00,29.3,28.2,00.0,38.3,31.1,20.7,0000.0,0000.02,0000.03,0000.00
2022-05-23 08:59:00,,0826.1,5.00,0.00,29.3,28.2,00.0,38.2,31.1,20.7,0000.0,0000.02,0000.03,0000.00
